When you browse on this site, cookies collect data to enhance your experience and personalize the content and advertising you see.
Visit our Privacy Policy to learn more. By continuing to use the site, you agree to this use of cookies and data.
  • Em Portugal
  • Lista de países
  • Para 7 dias
  • Temperatura da água
  • Mapa do tempo
  • Widgets de tempo
  • user-avatar
    Iniciar Sessão

    Previsão horária em Kapustino

    Hoje, 17 Fevereiro, Segunda-feira

    Tempo Temperatura Precipitação Vento Pressão Humidade
    00:00 +3°C° 0.1 mm 7 m/s 744 mmHg 83%
    01:00 +3°C° 0.1 mm 7 m/s 744 mmHg 84%
    02:00 +4°C° 0 mm 8 m/s 743 mmHg 83%
    03:00 +4°C° 0 mm 8 m/s 742 mmHg 81%
    04:00 +4°C° 0 mm 8 m/s 741 mmHg 79%
    05:00 +5°C° 0 mm 8 m/s 740 mmHg 77%
    06:00 +5°C° 0.1 mm 8 m/s 740 mmHg 76%
    07:00 +6°C° 0.1 mm 8 m/s 740 mmHg 75%
    08:00 +6°C° 0 mm 8 m/s 739 mmHg 74%
    09:00 +6°C° 0.2 mm 8 m/s 739 mmHg 75%
    10:00 +7°C° 0.2 mm 8 m/s 740 mmHg 76%
    11:00 +7°C° 0.2 mm 8 m/s 740 mmHg 78%
    12:00 +7°C° 0.3 mm 8 m/s 741 mmHg 71%
    13:00 +7°C° 0.3 mm 8 m/s 742 mmHg 64%
    14:00 +6°C° 0.3 mm 7 m/s 743 mmHg 57%
    15:00 +6°C° 0 mm 7 m/s 743 mmHg 60%
    16:00 +5°C° 0 mm 6 m/s 744 mmHg 62%
    17:00 +5°C° 0 mm 5 m/s 744 mmHg 65%
    18:00 +5°C° 0 mm 5 m/s 745 mmHg 67%
    19:00 +4°C° 0 mm 6 m/s 745 mmHg 70%
    20:00 +4°C° 0 mm 6 m/s 746 mmHg 72%
    21:00 +3°C° 0 mm 6 m/s 746 mmHg 73%
    22:00 +3°C° 0 mm 6 m/s 746 mmHg 73%
    23:00 +2°C° 0 mm 6 m/s 746 mmHg 73%

    Amanhã, 18 Fevereiro, Terça-feira

    Tempo Temperatura Precipitação Vento Pressão Humidade
    00:00 +2°C° 0 mm 6 m/s 746 mmHg 76%
    01:00 +2°C° 0 mm 6 m/s 746 mmHg 78%
    02:00 +2°C° 0 mm 6 m/s 746 mmHg 80%
    03:00 +2°C° 0 mm 6 m/s 746 mmHg 78%
    04:00 +2°C° 0 mm 6 m/s 746 mmHg 75%
    05:00 +3°C° 0 mm 6 m/s 746 mmHg 73%
    06:00 +3°C° 0 mm 6 m/s 746 mmHg 73%
    07:00 +3°C° 0 mm 6 m/s 746 mmHg 74%
    08:00 +3°C° 0 mm 6 m/s 746 mmHg 74%
    09:00 +3°C° 0 mm 6 m/s 746 mmHg 74%
    10:00 +3°C° 0 mm 6 m/s 746 mmHg 73%
    11:00 +3°C° 0 mm 7 m/s 746 mmHg 73%
    12:00 +3°C° 0 mm 6 m/s 746 mmHg 74%
    13:00 +3°C° 0 mm 6 m/s 746 mmHg 76%
    14:00 +3°C° 0 mm 6 m/s 747 mmHg 77%
    15:00 +3°C° 0 mm 5 m/s 746 mmHg 79%
    16:00 +2°C° 0 mm 5 m/s 746 mmHg 82%
    17:00 +2°C° 0 mm 5 m/s 746 mmHg 84%
    18:00 +3°C° 0.1 mm 4 m/s 746 mmHg 85%
    19:00 +3°C° 0.1 mm 4 m/s 747 mmHg 87%
    20:00 +1°C° 0.1 mm 4 m/s 747 mmHg 88%
    21:00 +3°C° 0 mm 4 m/s 747 mmHg 88%
    22:00 +3°C° 0 mm 4 m/s 747 mmHg 89%
    23:00 +3°C° 0 mm 4 m/s 747 mmHg 89%

    Depois de amanhã, 19 Fevereiro, Quarta-feira

    Tempo Temperatura Precipitação Vento Pressão Humidade
    00:00 +1°C° 0.1 mm 4 m/s 747 mmHg 86%
    01:00 +1°C° 0.1 mm 4 m/s 747 mmHg 84%
    02:00 +1°C° 0.1 mm 4 m/s 747 mmHg 82%
    03:00 +1°C° 0 mm 4 m/s 747 mmHg 82%
    04:00 +1°C° 0 mm 5 m/s 747 mmHg 82%
    05:00 0°C° 0 mm 5 m/s 747 mmHg 82%
    06:00 0°C° 0 mm 5 m/s 747 mmHg 81%
    07:00 +1°C° 0 mm 5 m/s 747 mmHg 80%
    08:00 +1°C° 0 mm 5 m/s 747 mmHg 80%
    09:00 +1°C° 0 mm 5 m/s 747 mmHg 80%
    10:00 +1°C° 0 mm 5 m/s 747 mmHg 79%
    11:00 +1°C° 0 mm 5 m/s 747 mmHg 79%
    12:00 +1°C° 0.1 mm 5 m/s 748 mmHg 81%
    13:00 +1°C° 0.1 mm 5 m/s 748 mmHg 82%
    14:00 +1°C° 0.1 mm 5 m/s 748 mmHg 83%
    15:00 +1°C° 0 mm 5 m/s 748 mmHg 82%
    16:00 +1°C° 0 mm 5 m/s 748 mmHg 81%
    17:00 +1°C° 0 mm 5 m/s 748 mmHg 80%
    18:00 +1°C° 0 mm 5 m/s 748 mmHg 82%
    19:00 +1°C° 0 mm 5 m/s 749 mmHg 83%
    20:00 +1°C° 0 mm 5 m/s 749 mmHg 85%
    21:00 +1°C° 0 mm 5 m/s 749 mmHg 85%
    22:00 +1°C° 0 mm 4 m/s 749 mmHg 84%
    23:00 +1°C° 0 mm 4 m/s 748 mmHg 83%

    20 Fevereiro, Quinta-feira

    Tempo Temperatura Precipitação Vento Pressão Humidade
    00:00 +1°C° 0 mm 4 m/s 749 mmHg 86%
    01:00 +1°C° 0 mm 4 m/s 749 mmHg 89%
    02:00 0°C° 0 mm 4 m/s 749 mmHg 92%
    03:00 0°C° 0.2 mm 4 m/s 749 mmHg 93%
    04:00 0°C° 0.2 mm 4 m/s 749 mmHg 95%
    05:00 0°C° 0.2 mm 4 m/s 748 mmHg 96%
    06:00 0°C° 0 mm 4 m/s 749 mmHg 93%
    07:00 +1°C° 0 mm 3 m/s 749 mmHg 91%
    08:00 +1°C° 0 mm 3 m/s 750 mmHg 88%
    09:00 0°C° 0 mm 4 m/s 750 mmHg 86%
    10:00 0°C° 0 mm 4 m/s 751 mmHg 84%
    11:00 +1°C° 0 mm 4 m/s 751 mmHg 82%
    12:00 +1°C° 0.1 mm 4 m/s 752 mmHg 80%
    13:00 +1°C° 0.1 mm 4 m/s 752 mmHg 77%
    14:00 +3°C° 0.1 mm 3 m/s 753 mmHg 75%
    15:00 +2°C° 0 mm 3 m/s 753 mmHg 76%
    16:00 +3°C° 0 mm 2 m/s 754 mmHg 76%
    17:00 +4°C° 0 mm 1 m/s 754 mmHg 77%
    18:00 +3°C° 0 mm 1 m/s 755 mmHg 79%
    19:00 +3°C° 0 mm 1 m/s 755 mmHg 81%
    20:00 +3°C° 0 mm 1 m/s 756 mmHg 83%
    21:00 +3°C° 0 mm 1 m/s 756 mmHg 84%
    22:00 +2°C° 0 mm 1 m/s 756 mmHg 86%
    23:00 +2°C° 0 mm 1 m/s 756 mmHg 88%

    21 Fevereiro, Sexta-feira

    Tempo Temperatura Precipitação Vento Pressão Humidade
    00:00 +2°C° 0 mm 1 m/s 756 mmHg 88%
    01:00 +1°C° 0 mm 1 m/s 756 mmHg 88%
    02:00 +1°C° 0 mm 1 m/s 757 mmHg 88%
    03:00 +1°C° 0 mm 1 m/s 756 mmHg 88%
    04:00 -1°C° 0 mm 2 m/s 756 mmHg 88%
    05:00 -2°C° 0 mm 2 m/s 756 mmHg 88%
    06:00 -1°C° 0 mm 2 m/s 756 mmHg 89%
    07:00 -1°C° 0 mm 3 m/s 756 mmHg 90%
    08:00 -1°C° 0 mm 3 m/s 756 mmHg 91%
    15:00 +1°C° 0 mm 4 m/s 754 mmHg 71%
    16:00 0°C° 0 mm 4 m/s 753 mmHg 73%
    17:00 0°C° 0 mm 4 m/s 753 mmHg 74%
    18:00 0°C° 0 mm 4 m/s 753 mmHg 75%
    19:00 0°C° 0 mm 4 m/s 753 mmHg 76%
    20:00 0°C° 0 mm 4 m/s 753 mmHg 77%
    21:00 -1°C° 0 mm 4 m/s 753 mmHg 81%
    22:00 -1°C° 0 mm 4 m/s 753 mmHg 86%
    23:00 -1°C° 0 mm 4 m/s 753 mmHg 91%

    22 Fevereiro, Sábado

    Tempo Temperatura Precipitação Vento Pressão Humidade
    00:00 -1°C° 0 mm 4 m/s 753 mmHg 92%
    01:00 -1°C° 0 mm 4 m/s 753 mmHg 94%
    02:00 0°C° 0 mm 4 m/s 753 mmHg 96%
    03:00 0°C° 0 mm 4 m/s 753 mmHg 94%
    04:00 0°C° 0 mm 4 m/s 753 mmHg 92%
    05:00 +1°C° 0 mm 3 m/s 753 mmHg 91%
    06:00 0°C° 0 mm 4 m/s 752 mmHg 90%
    07:00 -1°C° 0 mm 4 m/s 752 mmHg 89%
    08:00 -1°C° 0 mm 5 m/s 751 mmHg 88%
    09:00 -1°C° 0 mm 5 m/s 751 mmHg 86%
    10:00 -1°C° 0 mm 6 m/s 750 mmHg 83%
    11:00 -1°C° 0 mm 6 m/s 750 mmHg 81%
    12:00 -1°C° 0.2 mm 7 m/s 749 mmHg 85%
    13:00 -1°C° 0.2 mm 7 m/s 747 mmHg 89%
    14:00 -2°C° 0.2 mm 8 m/s 746 mmHg 93%
    15:00 -1°C° 0.6 mm 8 m/s 745 mmHg 94%
    16:00 -1°C° 0.6 mm 7 m/s 743 mmHg 94%
    17:00 -1°C° 0.6 mm 7 m/s 742 mmHg 95%
    18:00 -1°C° 0.6 mm 7 m/s 741 mmHg 94%
    19:00 0°C° 0.6 mm 7 m/s 740 mmHg 92%
    20:00 0°C° 0.6 mm 7 m/s 739 mmHg 91%
    21:00 +1°C° 0.6 mm 6 m/s 739 mmHg 92%
    22:00 +1°C° 0.6 mm 5 m/s 738 mmHg 93%
    23:00 0°C° 0.6 mm 4 m/s 737 mmHg 93%
    Mostrar mais